Regional Weather Roundup
Issued by NWS

Home | Current Version | Previous Version | Graphics & Text | Print | Product List | Glossary On
Versions: 1 2 3 4 5 6 7 8 9 10 11 12 13 14 15 16 17 18 19 20 21 22 23 24 25 26 27 28 29 30 31 32 33 34 35 36 37 38 39 40 41 42 43 44 45 46 47 48 49 50
000
ASUS43 KLOT 271508
RWRIL

ILLINOIS REGIONAL WEATHER ROUNDUP
NATIONAL WEATHER SERVICE CHICAGO/ROMEOVILLE IL
1000 AM CDT MON MAR 27 2017

NOTE: "FAIR" INDICATES FEW OR NO CLOUDS BELOW 12,000 FEET WITH NO
SIGNIFICANT WEATHER AND/OR OBSTRUCTIONS TO VISIBILITY.

* THESE STATIONS ARE NOT UNDER NWS QUALITY CONTROL. THEY ALSO MAY NOT
  REPORT WEATHER SUCH AS PRECIPITATION OR FOG.

ILZ001-002-007-009-015-016-024-271600-
NORTHWEST ILLINOIS

CITY           SKY/WX    TMP DP  RH WIND       PRES   REMARKS
MOLINE         CLOUDY    49  45  86 NE5       29.93R
STERLING*      CLOUDY    48  45  89 NE5       29.94S
SAVANNA*       CLOUDY    47  43  85 NE3       29.93S
$$

ILZ003-004-008-010-011-017-018-271600-
NORTH CENTRAL ILLINOIS

CITY           SKY/WX    TMP DP  RH WIND       PRES   REMARKS
ROCKFORD       CLOUDY    48  43  82 NE7       29.96S
FREEPORT*      CLOUDY    45  44  97 NE7       29.95F
ROCHELLE*      CLOUDY    46  45  95 NE7       29.94S FOG
DE KALB*       CLOUDY    46  46  99 NE8       29.95R FOG
PERU*          CLOUDY    47  46  94 NE3       29.94S FOG
$$

ILZ005-006-012>014-019>023-271600-
NORTHEAST ILLINOIS

CITY           SKY/WX    TMP DP  RH WIND       PRES   REMARKS
CHICAGO-OHARE  FOG       47  45  93 E5        29.95R VSB 1/2
CHICAGO-MIDWAY CLOUDY    47  45  93 NE9       29.95R FOG
AURORA         CLOUDY    50  47  89 NE5       29.94S FOG
LANSING*       CLOUDY    51  49  92 NW5       29.94F
JOLIET*        CLOUDY    51  48  90 CALM      29.95S
WAUKEGAN       CLOUDY    45  42  89 NE3       29.94F
DUPAGE AIRPORT FOG       47  47 100 N7        29.93S VSB 1/4
KANKAKEE*      CLOUDY    53  50  90 CALM      29.95R
WHEELING       CLOUDY    47  43  86 CALM      29.96R
MORRIS*        CLOUDY    50  47  90 CALM      29.93S
ROMEOVILLE*    CLOUDY    49  48  96 CALM      29.95S
NORTHERLY ISL    N/A     41  40  96 MISG        N/A
$$

LMZ740>746-271600-
SOUTHERN LAKE MICHIGAN

STATION/POSITION SKY/WX   TEMP    WIND        PRES    VSBY  WAVE
                          AIR SEA DIR/SP/G                  HT/PER
                          (F)     (DEG/KT/KT) (MB)    (MI)  (FT/S)
HARRISON CRIB              41      40/  7/  8   N/A
BURNHAM HARBOR             42      20/  5/  6   N/A
CALUMET HARBOR             42      10/  5/  7 1013.9R
BURNS HARBOR               46     290/  6/ 10 1014.2
MICHIGAN CITY              40      50/  9/ 10   N/A
$$

ILZ025>027-034>036-040-047-049-050-058-095>099-271600-
WEST-CENTRAL ILLINOIS

CITY           SKY/WX    TMP DP  RH WIND       PRES   REMARKS
QUINCY         LGT RAIN  49  47  93 E9        29.91R FOG
GALESBURG*     DRIZZLE   48  46  95 E3        29.93R
MACOMB*        LGT RAIN  48  48 100 E6        29.96R
JACKSONVILLE*  RAIN      49  47  96 E10       29.92R
PITTSFIELD*    RAIN      48  48  98 NE6       29.92R
$$

ILZ028>032-037-038-041>044-048-051>054-059>061-271600-
CENTRAL ILLINOIS

CITY           SKY/WX    TMP DP  RH WIND       PRES   REMARKS
PONTIAC        CLOUDY    50  50  98 CALM      29.95R FOG
BLOOMINGTON    CLOUDY    49  48  97 VRB5      29.94R
DECATUR        CLOUDY    50  47  89 SE9       29.94R
PEORIA         CLOUDY    50  47  89 NE5       29.93R
LACON*         CLOUDY    48  47  95 CALM      29.94R FOG
LINCOLN*       LGT RAIN  50  49  98 E6        29.94R
SPRINGFIELD    LGT RAIN  50  48  93 E7        29.94R FOG
TAYLORVILLE    RAIN      50  48  93 NE5       29.92S
$$

ILZ033-039-045-046-055>057-062-063-271600-
EAST-CENTRAL ILLINOIS

CITY           SKY/WX    TMP DP  RH WIND       PRES   REMARKS
CHAMPAIGN      CLOUDY    52  47  83 E12       29.94S
RANTOUL*       CLOUDY    54  51  89 E7        29.94S
MATTOON        CLOUDY    54  51  90 SE9       29.93R
PARIS*         CLOUDY    53  51  92 E6        29.95F
$$

ILZ079-100>102-271600-
SOUTHWEST ILLINOIS

CITY           SKY/WX    TMP DP  RH WIND       PRES   REMARKS
ALTON          RAIN      50  48  93 N8        29.88F
BELLEVILLE     LGT RAIN  52  52 100 N9        29.85R
CAHOKIA*       RAIN      53  50  89 NE5       29.86S FOG
SPARTA*        RAIN      55  54  95 SE10      29.85R
$$

ILZ064>066-069>071-074>076-080>082-084>086-088>090-092>094-271600-
SOUTH-CENTRAL ILLINOIS

CITY           SKY/WX    TMP DP  RH WIND       PRES   REMARKS
CARBONDALE     CLOUDY    61  58  90 S15G21    29.85R
CAIRO*         CLOUDY    63  57  82 SW10G16   29.89R
EFFINGHAM*     CLOUDY    54  50  89 E8        29.91F
MARION         CLOUDY    61  59  94 SE8       29.86F
MT. VERNON     CLOUDY    55  53  93 E8        29.85F
CENTRALIA*     CLOUDY    55  54  94 E9        29.83F
SALEM*         CLOUDY    55  51  87 E5        29.87R
METROPOLIS*    CLOUDY    64  58  82 S13       29.89R
$$

ILZ067-068-072-073-078-083-087-091-271600-
SOUTHEAST ILLINOIS

CITY           SKY/WX    TMP DP  RH WIND       PRES   REMARKS
LAWRENCEVILLE  CLOUDY    55  51  86 SE8       29.94S
FLORA*         DRIZZLE   54  51  89 E7        29.88F
FAIRFIELD*     CLOUDY    55  55  98 E7        29.85F
HARRISBURG*    PTSUNNY   58  56  92 SE10      29.87S
ROBINSON*      CLOUDY    53  49  87 S6        29.96R
CARMI*         CLOUDY    56  56  97 E10       29.87F
$$

ABBREVIATIONS USED IN REMARKS
   TC - TEMPERATURE IN CELSIUS
  WCI - WIND CHILL INDEX
   HX - HEAT INDEX
  VSB - VISIBILITY
$$





USA.gov is the U.S. government's official web portal to all federal, state and local government web resources and services.